MMS 2

Last updated on Dec. 2, 2020, 6:18 a.m. UTC

1 40483U 15011B   20331.40625000 -.00000024  00000-0  00000-0 0  9990
2 40483  31.4625 119.2193 8488861  26.0709 193.4692  0.28570016 11763
UTC
Height (km)
Latitude
Longitude
Inclination
Orbital Period
UTC large
Height (km)
Speed (km/s)
/
Latitude / Longitude
Inclination (degrees)
Orbital Period (minutes)
Azimuth
Elevation
Range (km)
Doppler Factor
iOS Compass Heading
iOS Angle

Next 30 passes for location: Hong Kong

Rise time Rise Azimuth (degrees) Set time Set Azimuth (degrees) Duration Max altitude (degrees)

No matching passes for this satellites